When you browse on this site, cookies collect data to enhance your experience and personalize the content and advertising you see.
Visit our Privacy Policy to learn more. By continuing to use the site, you agree to this use of cookies and data.
  • In Hungary
  • List of Countries
  • For 7 days
  • Water Temperature
  • Satellite Maps
  • Weather Map
  • News
  • Weather Widgets
  • user-avatar
    Login

    Hourly Weather Charbielin

    Today, 24 January, Thursday

    Time Temperature Precipitation Wind Pressure Humidity
    00:00 -8°C° 0 mm 3 mps 726 mmHg 81%
    01:00 -8°C° 0 mm 3 mps 726 mmHg 81%
    02:00 -8°C° 0 mm 3 mps 726 mmHg 81%
    03:00 -9°C° 0 mm 3 mps 726 mmHg 82%
    04:00 -9°C° 0 mm 3 mps 727 mmHg 82%
    05:00 -9°C° 0 mm 3 mps 727 mmHg 82%
    06:00 -9°C° 0 mm 3 mps 727 mmHg 82%
    07:00 -9°C° 0 mm 3 mps 727 mmHg 83%
    08:00 -8°C° 0 mm 3 mps 727 mmHg 81%
    09:00 -8°C° 0 mm 3 mps 728 mmHg 79%
    10:00 -8°C° 0 mm 3 mps 728 mmHg 77%
    11:00 -7°C° 0 mm 3 mps 728 mmHg 75%
    12:00 -7°C° 0 mm 3 mps 728 mmHg 73%
    13:00 -6°C° 0 mm 3 mps 728 mmHg 71%
    14:00 -6°C° 0 mm 3 mps 728 mmHg 72%
    15:00 -7°C° 0 mm 3 mps 728 mmHg 73%
    16:00 -7°C° 0 mm 3 mps 728 mmHg 74%
    17:00 -7°C° 0 mm 3 mps 728 mmHg 76%
    18:00 -7°C° 0 mm 3 mps 729 mmHg 77%
    19:00 -7°C° 0 mm 3 mps 729 mmHg 78%
    20:00 -7°C° 0 mm 3 mps 729 mmHg 79%
    21:00 -6°C° 0 mm 2 mps 729 mmHg 79%
    22:00 -6°C° 0 mm 2 mps 729 mmHg 79%
    23:00 -6°C° 0 mm 2 mps 729 mmHg 81%

    Tomorrow, 25 January, Friday

    Time Temperature Precipitation Wind Pressure Humidity
    00:00 -6°C° 0 mm 2 mps 729 mmHg 82%
    01:00 -7°C° 0 mm 2 mps 729 mmHg 83%
    02:00 -7°C° 0.1 mm 2 mps 729 mmHg 84%
    03:00 -7°C° 0.1 mm 2 mps 729 mmHg 85%
    04:00 -7°C° 0.1 mm 2 mps 729 mmHg 86%
    05:00 -7°C° 0.1 mm 2 mps 730 mmHg 86%
    06:00 -7°C° 0.1 mm 2 mps 730 mmHg 87%
    07:00 -7°C° 0.1 mm 2 mps 730 mmHg 87%
    08:00 -8°C° 0.1 mm 3 mps 730 mmHg 86%
    09:00 -7°C° 0.1 mm 3 mps 731 mmHg 85%
    10:00 -7°C° 0.1 mm 3 mps 731 mmHg 84%
    11:00 -7°C° 0 mm 3 mps 731 mmHg 81%
    12:00 -7°C° 0 mm 3 mps 731 mmHg 79%
    13:00 -6°C° 0 mm 3 mps 732 mmHg 77%
    14:00 -6°C° 0 mm 3 mps 732 mmHg 77%
    15:00 -7°C° 0 mm 3 mps 732 mmHg 78%
    16:00 -7°C° 0 mm 3 mps 732 mmHg 79%
    17:00 -7°C° 0 mm 3 mps 733 mmHg 79%
    18:00 -7°C° 0 mm 3 mps 733 mmHg 80%
    19:00 -7°C° 0 mm 3 mps 734 mmHg 81%
    20:00 -8°C° 0 mm 3 mps 734 mmHg 81%
    21:00 -8°C° 0 mm 3 mps 734 mmHg 82%
    22:00 -8°C° 0 mm 3 mps 734 mmHg 82%
    23:00 -8°C° 0 mm 2 mps 734 mmHg 83%

    Day after tomorrow, 26 January, Saturday

    Time Temperature Precipitation Wind Pressure Humidity
    00:00 -8°C° 0 mm 2 mps 734 mmHg 83%
    01:00 -8°C° 0 mm 2 mps 734 mmHg 84%
    02:00 -8°C° 0 mm 2 mps 734 mmHg 83%
    03:00 -7°C° 0 mm 1 mps 734 mmHg 83%
    04:00 -7°C° 0 mm 1 mps 734 mmHg 82%
    05:00 -8°C° 0 mm 2 mps 734 mmHg 81%
    06:00 -8°C° 0 mm 2 mps 733 mmHg 79%
    07:00 -8°C° 0 mm 2 mps 733 mmHg 78%
    08:00 -8°C° 0 mm 3 mps 733 mmHg 72%
    09:00 -6°C° 0 mm 3 mps 732 mmHg 67%
    10:00 -5°C° 0 mm 4 mps 732 mmHg 61%
    11:00 -4°C° 0 mm 4 mps 731 mmHg 63%
    12:00 -2°C° 0 mm 5 mps 731 mmHg 65%
    13:00 -1°C° 0 mm 5 mps 730 mmHg 67%
    14:00 -1°C° 0.5 mm 5 mps 730 mmHg 72%
    15:00 -1°C° 0.5 mm 5 mps 729 mmHg 76%
    16:00 -1°C° 0.5 mm 5 mps 729 mmHg 81%
    17:00 -1°C° 0.1 mm 5 mps 729 mmHg 81%
    18:00 -1°C° 0.1 mm 5 mps 729 mmHg 82%
    19:00 -1°C° 0.1 mm 4 mps 729 mmHg 83%
    20:00 -1°C° 0.1 mm 4 mps 729 mmHg 84%
    21:00 -1°C° 0.1 mm 4 mps 729 mmHg 85%
    22:00 0°C° 0.1 mm 3 mps 729 mmHg 86%
    23:00 0°C° 0.2 mm 3 mps 729 mmHg 87%

    27 January, Sunday

    Time Temperature Precipitation Wind Pressure Humidity
    00:00 0°C° 0.2 mm 3 mps 729 mmHg 88%
    01:00 0°C° 0.2 mm 3 mps 728 mmHg 89%
    02:00 +1°C° 0.2 mm 2 mps 728 mmHg 90%
    03:00 +1°C° 0.2 mm 2 mps 728 mmHg 90%
    04:00 +1°C° 0.2 mm 2 mps 727 mmHg 90%
    05:00 +1°C° 0 mm 2 mps 727 mmHg 90%
    06:00 0°C° 0 mm 3 mps 726 mmHg 90%
    07:00 0°C° 0 mm 3 mps 726 mmHg 90%
    08:00 0°C° 0 mm 3 mps 726 mmHg 87%
    09:00 0°C° 0 mm 4 mps 725 mmHg 85%
    10:00 0°C° 0 mm 4 mps 725 mmHg 82%
    11:00 +1°C° 0 mm 4 mps 724 mmHg 79%
    12:00 +1°C° 0 mm 4 mps 724 mmHg 75%
    13:00 +3°C° 0 mm 4 mps 723 mmHg 71%
    14:00 +1°C° 0 mm 5 mps 723 mmHg 71%
    15:00 +1°C° 0 mm 5 mps 722 mmHg 70%
    16:00 -1°C° 0 mm 6 mps 722 mmHg 70%
    17:00 -1°C° 0 mm 6 mps 722 mmHg 70%
    18:00 -2°C° 0 mm 6 mps 722 mmHg 71%
    19:00 -2°C° 0 mm 6 mps 722 mmHg 72%
    20:00 -2°C° 0.1 mm 6 mps 722 mmHg 75%
    21:00 -2°C° 0.1 mm 5 mps 722 mmHg 78%
    22:00 -2°C° 0.1 mm 5 mps 722 mmHg 81%
    23:00 -2°C° 0.1 mm 5 mps 721 mmHg 81%

    28 January, Monday

    Time Temperature Precipitation Wind Pressure Humidity
    00:00 -2°C° 0.1 mm 5 mps 721 mmHg 81%
    01:00 -2°C° 0.1 mm 5 mps 721 mmHg 82%
    02:00 -2°C° 0 mm 5 mps 721 mmHg 82%
    03:00 -2°C° 0 mm 4 mps 720 mmHg 83%
    04:00 -2°C° 0 mm 4 mps 720 mmHg 83%
    05:00 -2°C° 0 mm 5 mps 720 mmHg 83%
    06:00 -2°C° 0 mm 5 mps 720 mmHg 83%
    07:00 -2°C° 0 mm 5 mps 721 mmHg 82%
    08:00 -2°C° 0 mm 6 mps 721 mmHg 80%
    09:00 -2°C° 0 mm 6 mps 721 mmHg 78%
    10:00 -1°C° 0 mm 6 mps 721 mmHg 75%
    11:00 -1°C° 0 mm 6 mps 721 mmHg 74%
    12:00 +1°C° 0 mm 6 mps 721 mmHg 73%
    13:00 +1°C° 0 mm 6 mps 721 mmHg 71%
    14:00 +1°C° 0 mm 5 mps 721 mmHg 73%
    15:00 0°C° 0 mm 5 mps 721 mmHg 75%
    16:00 0°C° 0 mm 4 mps 722 mmHg 77%
    17:00 0°C° 0 mm 4 mps 722 mmHg 80%
    18:00 0°C° 0 mm 3 mps 723 mmHg 82%
    19:00 0°C° 0 mm 3 mps 723 mmHg 84%
    20:00 -1°C° 0 mm 3 mps 723 mmHg 85%
    21:00 -1°C° 0 mm 3 mps 724 mmHg 85%
    22:00 -2°C° 0 mm 2 mps 724 mmHg 86%
    23:00 -2°C° 0 mm 2 mps 724 mmHg 85%

    29 January, Tuesday

    Time Temperature Precipitation Wind Pressure Humidity
    00:00 -2°C° 0 mm 2 mps 724 mmHg 85%
    01:00 -2°C° 0 mm 2 mps 724 mmHg 85%
    02:00 -2°C° 0 mm 2 mps 724 mmHg 85%
    03:00 -2°C° 0 mm 2 mps 724 mmHg 86%
    04:00 -3°C° 0 mm 2 mps 724 mmHg 86%
    05:00 -3°C° 0 mm 2 mps 724 mmHg 86%
    06:00 -3°C° 0 mm 2 mps 724 mmHg 86%
    07:00 -3°C° 0 mm 2 mps 724 mmHg 85%
    08:00 -2°C° 0 mm 2 mps 725 mmHg 81%
    09:00 -2°C° 0 mm 2 mps 725 mmHg 77%
    10:00 -1°C° 0 mm 2 mps 725 mmHg 73%
    11:00 -1°C° 0 mm 2 mps 725 mmHg 70%
    12:00 +1°C° 0 mm 2 mps 725 mmHg 67%
    13:00 +1°C° 0 mm 2 mps 725 mmHg 64%
    14:00 +1°C° 0 mm 2 mps 725 mmHg 67%
    15:00 -1°C° 0 mm 2 mps 724 mmHg 70%
    16:00 -1°C° 0 mm 2 mps 724 mmHg 72%
    17:00 -2°C° 0 mm 2 mps 724 mmHg 74%
    18:00 -2°C° 0 mm 2 mps 725 mmHg 76%
    19:00 -4°C° 0 mm 3 mps 725 mmHg 78%
    20:00 -4°C° 0 mm 3 mps 725 mmHg 78%
    21:00 -4°C° 0 mm 3 mps 724 mmHg 78%
    22:00 -4°C° 0 mm 4 mps 724 mmHg 77%
    23:00 -3°C° 0 mm 4 mps 724 mmHg 79%
    Show more